Location: Namasale
(1.5000°N, 32.6167°E)
Time: 21:58:12
(UTC+00:00)

Transit 2A - Pass Details

Date: 21 April 2021
Orbit: 602 x 957 km, 66.7° (Epoch: 11 May)

Event Time Altitude Azimuth Distance (km) Brightness Sun altitude
Rises 03:38:46 0° 214° (SW) 3,409 8.9 -2.0°
Reaches altitude 10° 03:41:29 10° 222° (SW) 2,414 8.1 -1.4°
Maximum altitude 03:46:33 37° 288° (WNW) 1,164 6.6 -0.1°
Drops below altitude 10° 03:51:10 10° 356° (N) 2,184 8.5 1.0°
Sets 03:53:32 0° 4° (N) 3,046 9.3 1.6°
